Year,Month,Day,Hour,Minute,Value (Times are PST for temperature in C)
2022,03,29,07,53,3.80
2022,03,29,07,54,3.80
2022,03,29,07,55,3.80
2022,03,29,07,56,3.80
2022,03,29,07,57,3.80
2022,03,29,07,58,3.80
2022,03,29,07,59,3.80
2022,03,29,08,00,3.90
2022,03,29,08,01,3.90
2022,03,29,08,02,4.00
2022,03,29,08,03,4.00
2022,03,29,08,04,4.10
2022,03,29,08,05,4.10
2022,03,29,08,06,4.20
2022,03,29,08,07,4.20
2022,03,29,08,08,4.20
2022,03,29,08,09,4.30
2022,03,29,08,10,4.30
2022,03,29,08,11,4.30
2022,03,29,08,12,4.30
2022,03,29,08,13,4.30
2022,03,29,08,14,4.30
2022,03,29,08,15,4.40
2022,03,29,08,16,4.40
2022,03,29,08,17,4.40
2022,03,29,08,18,4.50
2022,03,29,08,19,4.60
2022,03,29,08,20,4.60
2022,03,29,08,21,4.70
2022,03,29,08,22,4.80
2022,03,29,08,23,4.80
2022,03,29,08,24,4.90
2022,03,29,08,25,4.90
2022,03,29,08,26,5.00
2022,03,29,08,27,5.00
2022,03,29,08,28,5.00
2022,03,29,08,29,5.10
2022,03,29,08,30,5.10
2022,03,29,08,31,5.10
2022,03,29,08,32,5.10
2022,03,29,08,33,5.20
2022,03,29,08,34,5.20
2022,03,29,08,35,5.20
2022,03,29,08,36,5.20
2022,03,29,08,37,5.30
2022,03,29,08,38,5.30
2022,03,29,08,39,5.40
2022,03,29,08,40,5.40
2022,03,29,08,41,5.50
2022,03,29,08,42,5.50
2022,03,29,08,43,5.50
2022,03,29,08,44,5.60
2022,03,29,08,45,5.60
2022,03,29,08,46,5.60
2022,03,29,08,47,5.70
2022,03,29,08,48,5.70
2022,03,29,08,49,5.70
2022,03,29,08,50,5.80
2022,03,29,08,51,5.80
2022,03,29,08,52,5.80
2022,03,29,08,53,5.80
2022,03,29,08,54,5.90
2022,03,29,08,55,5.90
2022,03,29,08,56,6.00
2022,03,29,08,57,6.00
2022,03,29,08,58,6.10
2022,03,29,08,59,6.20
2022,03,29,09,00,6.20
2022,03,29,09,01,6.30
2022,03,29,09,02,6.30
2022,03,29,09,03,6.40
2022,03,29,09,04,6.40
2022,03,29,09,05,6.40
2022,03,29,09,06,6.50
2022,03,29,09,07,6.50
2022,03,29,09,08,6.60
2022,03,29,09,09,6.60
2022,03,29,09,10,6.70
2022,03,29,09,11,6.80
2022,03,29,09,12,6.80
2022,03,29,09,13,6.90
2022,03,29,09,14,6.90
2022,03,29,09,15,7.00
2022,03,29,09,16,7.00
2022,03,29,09,17,7.00
2022,03,29,09,18,7.10
2022,03,29,09,19,7.10
2022,03,29,09,20,7.20
2022,03,29,09,21,7.20
2022,03,29,09,22,7.30
2022,03,29,09,23,7.30
2022,03,29,09,24,7.30
2022,03,29,09,25,7.40
2022,03,29,09,26,7.40
2022,03,29,09,27,7.40
2022,03,29,09,28,7.50
2022,03,29,09,29,7.50
2022,03,29,09,30,7.60
2022,03,29,09,31,7.60
2022,03,29,09,32,7.60
2022,03,29,09,33,7.70
2022,03,29,09,34,7.70
2022,03,29,09,35,7.70
2022,03,29,09,36,7.70
2022,03,29,09,37,7.80
2022,03,29,09,38,7.80
2022,03,29,09,39,7.80
2022,03,29,09,40,7.80
2022,03,29,09,41,7.90
2022,03,29,09,42,7.90
2022,03,29,09,43,7.90
2022,03,29,09,44,7.90
2022,03,29,09,45,8.00
2022,03,29,09,46,8.00
2022,03,29,09,47,8.10
2022,03,29,09,48,8.10
2022,03,29,09,49,8.10
2022,03,29,09,50,8.20
2022,03,29,09,51,8.20
2022,03,29,09,52,8.20
2022,03,29,09,53,8.20
2022,03,29,09,54,8.20
2022,03,29,09,55,8.20
2022,03,29,09,56,8.30
2022,03,29,09,57,8.30
2022,03,29,09,58,8.30
2022,03,29,09,59,8.30
2022,03,29,10,00,8.30
2022,03,29,10,01,8.40
2022,03,29,10,02,8.40
2022,03,29,10,03,8.40
2022,03,29,10,04,8.50
2022,03,29,10,05,8.50
2022,03,29,10,06,8.60
2022,03,29,10,07,8.60
2022,03,29,10,08,8.70
2022,03,29,10,09,8.70
2022,03,29,10,10,8.80
2022,03,29,10,11,8.80
2022,03,29,10,12,8.80
2022,03,29,10,13,8.80
2022,03,29,10,14,8.80
2022,03,29,10,15,8.90
2022,03,29,10,16,8.90
2022,03,29,10,17,8.90
2022,03,29,10,18,8.90
2022,03,29,10,19,8.90
2022,03,29,10,20,8.90
2022,03,29,10,21,9.00
2022,03,29,10,22,9.10
2022,03,29,10,23,9.10
2022,03,29,10,24,9.20
2022,03,29,10,25,9.20
2022,03,29,10,26,9.30
2022,03,29,10,27,9.30
2022,03,29,10,28,9.30
2022,03,29,10,29,9.30
2022,03,29,10,30,9.40
2022,03,29,10,31,9.40
2022,03,29,10,32,9.40
2022,03,29,10,33,9.50
2022,03,29,10,34,9.50
2022,03,29,10,35,9.60
2022,03,29,10,36,9.60
2022,03,29,10,37,9.60
2022,03,29,10,38,9.60
2022,03,29,10,39,9.60
2022,03,29,10,40,9.60
2022,03,29,10,41,9.70
2022,03,29,10,42,9.70
2022,03,29,10,43,9.80
2022,03,29,10,44,9.80
2022,03,29,10,45,9.90
2022,03,29,10,46,9.90
2022,03,29,10,47,9.90
2022,03,29,10,48,9.90
2022,03,29,10,49,10.00
2022,03,29,10,50,10.10
2022,03,29,10,51,10.10
2022,03,29,10,52,10.20
2022,03,29,10,53,10.20
2022,03,29,10,54,10.20
2022,03,29,10,55,10.20
2022,03,29,10,56,10.10
2022,03,29,10,57,10.10
2022,03,29,10,58,10.10
2022,03,29,10,59,10.20
2022,03,29,11,00,10.30
2022,03,29,11,01,10.40
2022,03,29,11,02,10.40
2022,03,29,11,03,10.50
2022,03,29,11,04,10.50
2022,03,29,11,05,10.60
2022,03,29,11,06,10.70
2022,03,29,11,07,10.80
2022,03,29,11,08,10.90
2022,03,29,11,09,10.90
2022,03,29,11,10,11.10
2022,03,29,11,11,11.20
2022,03,29,11,12,11.30
2022,03,29,11,13,11.30
2022,03,29,11,14,11.40
2022,03,29,11,15,11.40
2022,03,29,11,16,11.50
2022,03,29,11,17,11.70
2022,03,29,11,18,11.80
2022,03,29,11,19,11.80
2022,03,29,11,20,11.80
2022,03,29,11,21,11.90
2022,03,29,11,22,11.90
2022,03,29,11,23,12.00
2022,03,29,11,24,12.10
2022,03,29,11,25,12.20
2022,03,29,11,26,12.30
2022,03,29,11,27,12.40
2022,03,29,11,28,12.50
2022,03,29,11,29,12.60
2022,03,29,11,30,12.70
2022,03,29,11,31,12.70
2022,03,29,11,32,12.60
2022,03,29,11,33,12.60
2022,03,29,11,34,12.60
2022,03,29,11,35,12.60
2022,03,29,11,36,12.70
2022,03,29,11,37,12.70
2022,03,29,11,38,12.80
2022,03,29,11,39,13.00
2022,03,29,11,40,13.20
2022,03,29,11,41,13.30
2022,03,29,11,42,13.50
2022,03,29,11,43,13.60
2022,03,29,11,44,13.70
2022,03,29,11,45,13.60
2022,03,29,11,46,13.60
2022,03,29,11,47,13.60
2022,03,29,11,48,13.70
2022,03,29,11,49,13.70
2022,03,29,11,50,13.80
2022,03,29,11,51,13.80
2022,03,29,11,52,13.80
2022,03,29,11,53,13.70
2022,03,29,11,54,13.70
2022,03,29,11,55,13.60
2022,03,29,11,56,13.60
2022,03,29,11,57,13.50
2022,03,29,11,58,13.40
2022,03,29,11,59,13.40
2022,03,29,12,00,13.40
2022,03,29,12,01,13.40
2022,03,29,12,02,13.20
2022,03,29,12,03,13.00
2022,03,29,12,04,13.00
2022,03,29,12,05,13.00
2022,03,29,12,06,12.90
2022,03,29,12,07,12.90
2022,03,29,12,08,12.90
2022,03,29,12,09,12.90
2022,03,29,12,10,12.80
2022,03,29,12,11,12.70
2022,03,29,12,12,12.60
2022,03,29,12,13,12.60
2022,03,29,12,14,12.70
2022,03,29,12,15,12.80
2022,03,29,12,16,12.80
2022,03,29,12,17,12.80
2022,03,29,12,18,12.70
2022,03,29,12,19,12.70
2022,03,29,12,20,12.70
2022,03,29,12,21,12.70
2022,03,29,12,22,12.70
2022,03,29,12,23,12.70
2022,03,29,12,24,12.70
2022,03,29,12,25,12.70
2022,03,29,12,26,12.60
2022,03,29,12,27,12.60
2022,03,29,12,28,12.60
2022,03,29,12,29,12.60
2022,03,29,12,30,12.70
2022,03,29,12,31,12.70
2022,03,29,12,32,12.80
2022,03,29,12,33,12.80
2022,03,29,12,34,12.70
2022,03,29,12,35,12.60
2022,03,29,12,36,12.70
2022,03,29,12,37,12.80
2022,03,29,12,38,12.70
2022,03,29,12,39,12.70
2022,03,29,12,40,12.70
2022,03,29,12,41,12.70
2022,03,29,12,42,12.70
2022,03,29,12,43,12.70
2022,03,29,12,44,12.80
2022,03,29,12,45,12.80
2022,03,29,12,46,12.70
2022,03,29,12,47,12.70
2022,03,29,12,48,12.70
2022,03,29,12,49,12.60
2022,03,29,12,50,12.60
2022,03,29,12,51,12.60
2022,03,29,12,52,12.60
2022,03,29,12,53,12.60
2022,03,29,12,54,12.60
2022,03,29,12,55,12.70
2022,03,29,12,56,12.70
2022,03,29,12,57,12.80
2022,03,29,12,58,12.70
2022,03,29,12,59,12.70
2022,03,29,13,00,12.80
2022,03,29,13,01,12.90
2022,03,29,13,02,13.00
2022,03,29,13,03,13.00
2022,03,29,13,04,12.90
2022,03,29,13,05,13.00
2022,03,29,13,06,13.00
2022,03,29,13,07,12.90
2022,03,29,13,08,12.90
2022,03,29,13,09,13.00
2022,03,29,13,10,13.00
2022,03,29,13,11,13.10
2022,03,29,13,12,12.90
2022,03,29,13,13,12.80
2022,03,29,13,14,12.70
2022,03,29,13,15,12.50
2022,03,29,13,16,12.40
2022,03,29,13,17,12.40
2022,03,29,13,18,12.40
2022,03,29,13,19,12.40
2022,03,29,13,20,12.30
2022,03,29,13,21,12.20
2022,03,29,13,22,12.20
2022,03,29,13,23,12.20
2022,03,29,13,24,12.30
2022,03,29,13,25,12.30
2022,03,29,13,26,12.50
2022,03,29,13,27,12.50
2022,03,29,13,28,12.40
2022,03,29,13,29,12.40
2022,03,29,13,30,12.50
2022,03,29,13,31,12.60
2022,03,29,13,32,12.60
2022,03,29,13,33,12.70
2022,03,29,13,34,12.70
2022,03,29,13,35,12.80
2022,03,29,13,36,12.80
2022,03,29,13,37,12.70
2022,03,29,13,38,12.60
2022,03,29,13,39,12.50
2022,03,29,13,40,12.60
2022,03,29,13,41,12.70
2022,03,29,13,42,12.60
2022,03,29,13,43,12.50
2022,03,29,13,44,12.50
2022,03,29,13,45,12.70
2022,03,29,13,46,12.90
2022,03,29,13,47,13.00
2022,03,29,13,48,13.00
2022,03,29,13,49,13.00
2022,03,29,13,50,12.90
2022,03,29,13,51,12.90
2022,03,29,13,52,12.70
2022,03,29,13,53,12.70
2022,03,29,13,54,12.70
2022,03,29,13,55,12.80
2022,03,29,13,56,12.90
2022,03,29,13,57,13.00
2022,03,29,13,58,13.10
2022,03,29,13,59,13.20
2022,03,29,14,00,13.30
2022,03,29,14,01,13.40
2022,03,29,14,02,13.50
2022,03,29,14,03,13.40
2022,03,29,14,04,13.30
2022,03,29,14,05,13.30
2022,03,29,14,06,13.40
2022,03,29,14,07,13.50
2022,03,29,14,08,13.70
2022,03,29,14,09,13.70
2022,03,29,14,10,13.70
2022,03,29,14,11,13.70
2022,03,29,14,12,13.70
2022,03,29,14,13,13.60
2022,03,29,14,14,13.50
2022,03,29,14,15,13.50
2022,03,29,14,16,13.40
2022,03,29,14,17,13.40
2022,03,29,14,18,13.30
2022,03,29,14,19,13.40
2022,03,29,14,20,13.40
2022,03,29,14,21,13.40
2022,03,29,14,22,13.40
2022,03,29,14,23,13.30
2022,03,29,14,24,13.30
2022,03,29,14,25,13.40
2022,03,29,14,26,13.50
2022,03,29,14,27,13.50
2022,03,29,14,28,13.40
2022,03,29,14,29,13.40
2022,03,29,14,30,13.50
2022,03,29,14,31,13.60
2022,03,29,14,32,13.70
2022,03,29,14,33,13.70
2022,03,29,14,34,13.80
2022,03,29,14,35,13.90
2022,03,29,14,36,13.90
2022,03,29,14,37,13.90
2022,03,29,14,38,14.00
2022,03,29,14,39,14.10
2022,03,29,14,40,14.20
2022,03,29,14,41,14.30
2022,03,29,14,42,14.40
2022,03,29,14,43,14.40
2022,03,29,14,44,14.40
2022,03,29,14,45,14.40
2022,03,29,14,46,14.40
2022,03,29,14,47,14.40
2022,03,29,14,48,14.30
2022,03,29,14,49,14.30
2022,03,29,14,50,14.30
2022,03,29,14,51,14.40
2022,03,29,14,52,14.40
2022,03,29,14,53,14.50
2022,03,29,14,54,14.30
2022,03,29,14,55,14.30
2022,03,29,14,56,14.30
2022,03,29,14,57,14.30
2022,03,29,14,58,14.30
2022,03,29,14,59,14.30
2022,03,29,15,00,14.30
2022,03,29,15,01,14.30
2022,03,29,15,02,14.10
2022,03,29,15,03,14.10
2022,03,29,15,04,14.10
2022,03,29,15,05,14.10
2022,03,29,15,06,14.10
2022,03,29,15,07,14.00
2022,03,29,15,08,14.10
2022,03,29,15,09,14.10
2022,03,29,15,10,14.10
2022,03,29,15,11,14.10
2022,03,29,15,12,14.10
2022,03,29,15,13,14.20
2022,03,29,15,14,14.20
2022,03,29,15,15,14.20
2022,03,29,15,16,14.20
2022,03,29,15,17,14.20
2022,03,29,15,18,14.30
2022,03,29,15,19,14.30
2022,03,29,15,20,14.20
2022,03,29,15,21,14.30
2022,03,29,15,22,14.20
2022,03,29,15,23,14.20
2022,03,29,15,24,14.20
2022,03,29,15,25,14.10
2022,03,29,15,26,14.10
2022,03,29,15,27,14.00
2022,03,29,15,28,13.90
2022,03,29,15,29,13.90
2022,03,29,15,30,13.80
2022,03,29,15,31,13.70
2022,03,29,15,32,13.70
2022,03,29,15,33,13.60
2022,03,29,15,34,13.60
2022,03,29,15,35,13.60
2022,03,29,15,36,13.60
2022,03,29,15,37,13.60
2022,03,29,15,38,13.60
2022,03,29,15,39,13.60
2022,03,29,15,40,13.60
2022,03,29,15,41,13.60
2022,03,29,15,42,13.60
2022,03,29,15,43,13.70
2022,03,29,15,44,13.70
2022,03,29,15,45,13.70
2022,03,29,15,46,13.60
2022,03,29,15,47,13.60
2022,03,29,15,48,13.60
2022,03,29,15,49,13.70
2022,03,29,15,50,13.70
2022,03,29,15,51,13.80
2022,03,29,15,52,13.80
2022,03,29,15,53,13.80
2022,03,29,15,54,13.70
2022,03,29,15,55,13.80
2022,03,29,15,56,13.80
2022,03,29,15,57,13.80
2022,03,29,15,58,13.90
2022,03,29,15,59,13.90
2022,03,29,16,00,13.90
2022,03,29,16,01,13.90
2022,03,29,16,02,13.90
2022,03,29,16,03,13.90
2022,03,29,16,04,13.90
2022,03,29,16,05,13.80
2022,03,29,16,06,13.80
2022,03,29,16,07,13.80
2022,03,29,16,08,13.90
2022,03,29,16,09,13.80
2022,03,29,16,10,13.80
2022,03,29,16,11,13.90
2022,03,29,16,12,13.90
2022,03,29,16,13,13.90
2022,03,29,16,14,14.00
2022,03,29,16,15,14.10
2022,03,29,16,16,14.00
2022,03,29,16,17,14.00
2022,03,29,16,18,14.10
2022,03,29,16,19,14.00
2022,03,29,16,20,13.90
2022,03,29,16,21,13.90
2022,03,29,16,22,14.00
2022,03,29,16,23,14.00
2022,03,29,16,24,14.00
2022,03,29,16,25,13.90
2022,03,29,16,26,13.90
2022,03,29,16,27,13.90
2022,03,29,16,28,13.80
2022,03,29,16,29,13.70
2022,03,29,16,30,13.60
2022,03,29,16,31,13.60
2022,03,29,16,32,13.60
2022,03,29,16,33,13.60
2022,03,29,16,34,13.60
2022,03,29,16,35,13.70
2022,03,29,16,36,13.70
2022,03,29,16,37,13.80
2022,03,29,16,38,13.80
2022,03,29,16,39,13.90
2022,03,29,16,40,13.90
2022,03,29,16,41,13.90
2022,03,29,16,42,14.00
2022,03,29,16,43,14.10
2022,03,29,16,44,14.10
2022,03,29,16,45,14.00
2022,03,29,16,46,14.00
2022,03,29,16,47,14.10
2022,03,29,16,48,14.10
2022,03,29,16,49,14.20
2022,03,29,16,50,14.30
2022,03,29,16,51,14.50
2022,03,29,16,52,14.50
2022,03,29,16,53,14.50
2022,03,29,16,54,14.40
2022,03,29,16,55,14.20
2022,03,29,16,56,14.10
2022,03,29,16,57,13.90
2022,03,29,16,58,13.80
2022,03,29,16,59,13.80
2022,03,29,17,00,13.80
2022,03,29,17,01,13.80
2022,03,29,17,02,13.70
2022,03,29,17,03,13.70
2022,03,29,17,04,13.70
2022,03,29,17,05,13.70
2022,03,29,17,06,13.70
2022,03,29,17,07,13.70
2022,03,29,17,08,13.60
2022,03,29,17,09,13.60
2022,03,29,17,10,13.40
2022,03,29,17,11,13.30
2022,03,29,17,12,13.20
2022,03,29,17,13,13.20
2022,03,29,17,14,13.10
2022,03,29,17,15,13.10
2022,03,29,17,16,13.10
2022,03,29,17,17,13.20
2022,03,29,17,18,13.20
2022,03,29,17,19,13.20
2022,03,29,17,20,13.20
2022,03,29,17,21,13.30
2022,03,29,17,22,13.30
2022,03,29,17,23,13.30
2022,03,29,17,24,13.40
2022,03,29,17,25,13.40
2022,03,29,17,26,13.40
2022,03,29,17,27,13.40
2022,03,29,17,28,13.40
2022,03,29,17,29,13.40
2022,03,29,17,30,13.50
2022,03,29,17,31,13.50
2022,03,29,17,32,13.60
2022,03,29,17,33,13.60
2022,03,29,17,34,13.70
2022,03,29,17,35,13.70
2022,03,29,17,36,13.80
2022,03,29,17,37,13.70
2022,03,29,17,38,13.70
2022,03,29,17,39,13.60
2022,03,29,17,40,13.60
2022,03,29,17,41,13.50
2022,03,29,17,42,13.40
2022,03,29,17,43,13.40
2022,03,29,17,44,13.40
2022,03,29,17,45,13.30
2022,03,29,17,46,13.30
2022,03,29,17,47,13.30
2022,03,29,17,48,13.30
2022,03,29,17,49,13.40
2022,03,29,17,50,13.40
2022,03,29,17,51,13.40
2022,03,29,17,52,13.50
2022,03,29,17,53,13.50
2022,03,29,17,54,13.50
2022,03,29,17,55,13.60
2022,03,29,17,56,13.70
2022,03,29,17,57,13.70
2022,03,29,17,58,13.70
2022,03,29,17,59,13.70
2022,03,29,18,00,13.70
2022,03,29,18,01,13.60
2022,03,29,18,02,13.50
2022,03,29,18,03,13.50
2022,03,29,18,04,13.50
2022,03,29,18,05,13.40
2022,03,29,18,06,13.40
2022,03,29,18,07,13.40
2022,03,29,18,08,13.40
2022,03,29,18,09,13.40
2022,03,29,18,10,13.40
2022,03,29,18,11,13.40
2022,03,29,18,12,13.40
2022,03,29,18,13,13.40
2022,03,29,18,14,13.40
2022,03,29,18,15,13.40
2022,03,29,18,16,13.40
2022,03,29,18,17,13.40
2022,03,29,18,18,13.40
2022,03,29,18,19,13.30
2022,03,29,18,20,13.30
2022,03,29,18,21,13.30
2022,03,29,18,22,13.30
2022,03,29,18,23,13.30
2022,03,29,18,24,13.20
2022,03,29,18,25,13.20
2022,03,29,18,26,13.10
2022,03,29,18,27,13.10
2022,03,29,18,28,13.10
2022,03,29,18,29,13.00
2022,03,29,18,30,13.00
2022,03,29,18,31,13.00
2022,03,29,18,32,13.00
2022,03,29,18,33,12.90
2022,03,29,18,34,12.90
2022,03,29,18,35,12.80
2022,03,29,18,36,12.80
2022,03,29,18,37,12.80
2022,03,29,18,38,12.80
2022,03,29,18,39,12.80
2022,03,29,18,40,12.80
2022,03,29,18,41,12.80
2022,03,29,18,42,12.80
2022,03,29,18,43,12.70
2022,03,29,18,44,12.70
2022,03,29,18,45,12.70
2022,03,29,18,46,12.70
2022,03,29,18,47,12.70
2022,03,29,18,48,12.60
2022,03,29,18,49,12.60
2022,03,29,18,50,12.60
2022,03,29,18,51,12.50
2022,03,29,18,52,12.40
2022,03,29,18,53,12.40
2022,03,29,18,54,12.40
2022,03,29,18,55,12.30
2022,03,29,18,56,12.30
2022,03,29,18,57,12.30
2022,03,29,18,58,12.20
2022,03,29,18,59,12.20
2022,03,29,19,00,12.10
2022,03,29,19,01,12.10
2022,03,29,19,02,12.10
2022,03,29,19,03,12.00
2022,03,29,19,04,11.90
2022,03,29,19,05,11.90
2022,03,29,19,06,11.90
2022,03,29,19,07,11.90
2022,03,29,19,08,11.90
2022,03,29,19,09,11.90
2022,03,29,19,10,11.90
2022,03,29,19,11,11.90
2022,03,29,19,12,11.90
2022,03,29,19,13,11.90
2022,03,29,19,14,11.80
2022,03,29,19,15,11.80
2022,03,29,19,16,11.80
2022,03,29,19,17,11.80
2022,03,29,19,18,11.80
2022,03,29,19,19,11.80
2022,03,29,19,20,11.70
2022,03,29,19,21,11.70
2022,03,29,19,22,11.70
2022,03,29,19,23,11.70
2022,03,29,19,24,11.70
2022,03,29,19,25,11.60
2022,03,29,19,26,11.60
2022,03,29,19,27,11.60
2022,03,29,19,28,11.60
2022,03,29,19,29,11.60
2022,03,29,19,30,11.60
2022,03,29,19,31,11.60
2022,03,29,19,32,11.60
2022,03,29,19,33,11.60
2022,03,29,19,34,11.60
2022,03,29,19,35,11.60
2022,03,29,19,36,11.60
2022,03,29,19,37,11.50
2022,03,29,19,38,11.50
2022,03,29,19,39,11.60
2022,03,29,19,40,11.50
2022,03,29,19,41,11.50
2022,03,29,19,42,11.50
2022,03,29,19,43,11.50
2022,03,29,19,44,11.50
2022,03,29,19,45,11.50
2022,03,29,19,46,11.50
2022,03,29,19,47,11.40
2022,03,29,19,48,11.40
2022,03,29,19,49,11.40
2022,03,29,19,50,11.40
2022,03,29,19,51,11.40
2022,03,29,19,52,11.40
2022,03,29,19,53,11.40
2022,03,29,19,54,11.30
2022,03,29,19,55,11.30
2022,03,29,19,56,11.30
2022,03,29,19,57,11.30
2022,03,29,19,58,11.30
2022,03,29,19,59,11.30
2022,03,29,20,00,11.30
2022,03,29,20,01,11.30
2022,03,29,20,02,11.30
2022,03,29,20,03,11.20
2022,03,29,20,04,11.20
2022,03,29,20,05,11.20
2022,03,29,20,06,11.20
2022,03,29,20,07,11.20
2022,03,29,20,08,11.20
2022,03,29,20,09,11.20
2022,03,29,20,10,11.20
2022,03,29,20,11,11.20
2022,03,29,20,12,11.20
2022,03,29,20,13,11.10
2022,03,29,20,14,11.10
2022,03,29,20,15,11.10
2022,03,29,20,16,11.10
2022,03,29,20,17,11.10
2022,03,29,20,18,11.10
2022,03,29,20,19,11.10
2022,03,29,20,20,11.10
2022,03,29,20,21,11.10
2022,03,29,20,22,11.10
2022,03,29,20,23,11.10
2022,03,29,20,24,11.10
2022,03,29,20,25,11.10
2022,03,29,20,26,11.10
2022,03,29,20,27,11.10
2022,03,29,20,28,11.10
2022,03,29,20,29,11.10
2022,03,29,20,30,11.10
2022,03,29,20,31,11.10
2022,03,29,20,32,11.10
2022,03,29,20,33,11.10
2022,03,29,20,34,11.10
2022,03,29,20,35,11.10
2022,03,29,20,36,11.10
2022,03,29,20,37,11.00
2022,03,29,20,38,11.00
2022,03,29,20,39,11.00
2022,03,29,20,40,11.00
2022,03,29,20,41,10.90
2022,03,29,20,42,10.90
2022,03,29,20,43,10.90
2022,03,29,20,44,10.90
2022,03,29,20,45,10.90
2022,03,29,20,46,10.80
2022,03,29,20,47,10.80
2022,03,29,20,48,10.80
2022,03,29,20,49,10.80
2022,03,29,20,50,10.80
2022,03,29,20,51,10.80
2022,03,29,20,52,10.80
2022,03,29,20,53,10.70
2022,03,29,20,54,10.70
2022,03,29,20,55,10.70
2022,03,29,20,56,10.70
2022,03,29,20,57,10.60
2022,03,29,20,58,10.60
2022,03,29,20,59,10.60
2022,03,29,21,00,10.50
2022,03,29,21,01,10.50
2022,03,29,21,02,10.50
2022,03,29,21,03,10.50
2022,03,29,21,04,10.50
2022,03,29,21,05,10.50
2022,03,29,21,06,10.40
2022,03,29,21,07,10.40
2022,03,29,21,08,10.40
2022,03,29,21,09,10.40
2022,03,29,21,10,10.40
2022,03,29,21,11,10.40
2022,03,29,21,12,10.30
2022,03,29,21,13,10.30
2022,03,29,21,14,10.30
2022,03,29,21,15,10.30
2022,03,29,21,16,10.20
2022,03,29,21,17,10.20
2022,03,29,21,18,10.20
2022,03,29,21,19,10.20
2022,03,29,21,20,10.20
2022,03,29,21,21,10.20
2022,03,29,21,22,10.20
2022,03,29,21,23,10.20
2022,03,29,21,24,10.20
2022,03,29,21,25,10.20
2022,03,29,21,26,10.10
2022,03,29,21,27,10.10
2022,03,29,21,28,10.10
2022,03,29,21,29,10.10
2022,03,29,21,30,10.10
2022,03,29,21,31,10.10
2022,03,29,21,32,10.10
2022,03,29,21,33,10.10
2022,03,29,21,34,10.00
2022,03,29,21,35,10.00
2022,03,29,21,36,10.00
2022,03,29,21,37,10.00
2022,03,29,21,38,10.00
2022,03,29,21,39,10.00
2022,03,29,21,40,9.90
2022,03,29,21,41,9.90
2022,03,29,21,42,9.90
2022,03,29,21,43,9.90
2022,03,29,21,44,9.90
2022,03,29,21,45,9.90
2022,03,29,21,46,9.90
2022,03,29,21,47,9.90
2022,03,29,21,48,9.90
2022,03,29,21,49,9.90
2022,03,29,21,50,10.00
2022,03,29,21,51,9.90
2022,03,29,21,52,10.00
2022,03,29,21,53,9.90
2022,03,29,21,54,10.00
2022,03,29,21,55,10.00
2022,03,29,21,56,10.00
2022,03,29,21,57,10.00
2022,03,29,21,58,10.00
2022,03,29,21,59,10.00
2022,03,29,22,00,10.00
2022,03,29,22,01,10.00
2022,03,29,22,02,10.00
2022,03,29,22,03,10.00
2022,03,29,22,04,10.00
2022,03,29,22,05,10.10
2022,03,29,22,06,10.00
2022,03,29,22,07,10.00
2022,03,29,22,08,10.10
2022,03,29,22,09,10.10
2022,03,29,22,10,10.10
2022,03,29,22,11,10.10
2022,03,29,22,12,10.10
2022,03,29,22,13,10.10
2022,03,29,22,14,10.10
2022,03,29,22,15,10.10
2022,03,29,22,16,10.10
2022,03,29,22,17,10.10
2022,03,29,22,18,10.10
2022,03,29,22,19,10.10
2022,03,29,22,20,10.20
2022,03,29,22,21,10.20
2022,03,29,22,22,10.20
2022,03,29,22,23,10.20
2022,03,29,22,24,10.10
2022,03,29,22,25,10.20
2022,03,29,22,26,10.20
2022,03,29,22,27,10.20
2022,03,29,22,28,10.20
2022,03,29,22,29,10.20
2022,03,29,22,30,10.20
2022,03,29,22,31,10.20
2022,03,29,22,32,10.20
2022,03,29,22,33,10.20
2022,03,29,22,34,10.20
2022,03,29,22,35,10.20
2022,03,29,22,36,10.20
2022,03,29,22,37,10.10
2022,03,29,22,38,10.10
2022,03,29,22,39,10.10
2022,03,29,22,40,10.10
2022,03,29,22,41,10.10
2022,03,29,22,42,10.10
2022,03,29,22,43,10.10
2022,03,29,22,44,10.00
2022,03,29,22,45,10.00
2022,03,29,22,46,10.00
2022,03,29,22,47,10.00
2022,03,29,22,48,10.00
2022,03,29,22,49,9.90
2022,03,29,22,50,10.00
2022,03,29,22,51,9.90
2022,03,29,22,52,9.90
2022,03,29,22,53,9.90
2022,03,29,22,54,9.90
2022,03,29,22,55,9.90
2022,03,29,22,56,9.90
2022,03,29,22,57,9.90
2022,03,29,22,58,9.90
2022,03,29,22,59,9.90
2022,03,29,23,00,9.90
2022,03,29,23,01,9.90
2022,03,29,23,02,9.80
2022,03,29,23,03,9.80
2022,03,29,23,04,9.80
2022,03,29,23,05,9.80
2022,03,29,23,06,9.80
2022,03,29,23,07,9.80
2022,03,29,23,08,9.80
2022,03,29,23,09,9.80
2022,03,29,23,10,9.80
2022,03,29,23,11,9.80
2022,03,29,23,12,9.80
2022,03,29,23,13,9.80
2022,03,29,23,14,9.80
2022,03,29,23,15,9.80
2022,03,29,23,16,9.80
2022,03,29,23,17,9.80
2022,03,29,23,18,9.80
2022,03,29,23,19,9.80
2022,03,29,23,20,9.80
2022,03,29,23,21,9.70
2022,03,29,23,22,9.70
2022,03,29,23,23,9.70
2022,03,29,23,24,9.70
2022,03,29,23,25,9.70
2022,03,29,23,26,9.70
2022,03,29,23,27,9.70
2022,03,29,23,28,9.70
2022,03,29,23,29,9.70
2022,03,29,23,30,9.70
2022,03,29,23,31,9.70
2022,03,29,23,32,9.70
2022,03,29,23,33,9.70
2022,03,29,23,34,9.70
2022,03,29,23,35,9.70
2022,03,29,23,36,9.70
